Hot Springs, VA

10:41 PM EDT on August 20, 2017 (GMT -0400)
Ingalls

Weather History for KHSP - December, 2014

Change the Weather History Date:

Friday, December 19, 2014

  Actual Average Record
Temperature  
Mean Temperature 26 °F -  
Max Temperature 33 °F 34 °F 55 °F (2008)
Min Temperature 20 °F 20 °F 0 °F (2004)
Degree Days  
Heating Degree Days 38    
Moisture  
Dew Point 21 °F    
Average Humidity 86    
Maximum Humidity 100    
Minimum Humidity 63    
Precipitation  
Precipitation 0.00 in - - ()
Sea Level Pressure  
Sea Level Pressure 30.01 in    
Wind  
Wind Speed 12 mph (WNW)    
Max Wind Speed 16 mph    
Max Gust Speed 20 mph    
Visibility 10 miles    
Events      
Averages and records for this station are not official NWS values.
T = Trace of Precipitation, MM = Missing Value Source: NWS Daily Summary

Daily Weather History Graph

Daily Weather History Graph

Search for Another Location

Airport or City:

Trip Planner

Search our weather history database for the weather conditions in past years. The results will help you decide how hot, cold, wet, or windy it might be!

Date:

Astronomy

Dec. 19, 2014 Rise Set
Actual Time 7:30 AM EST 5:02 PM EST
Civil Twilight 7:00 AM EST 5:32 PM EST
Nautical Twilight 6:27 AM EST 6:05 PM EST
Astronomical Twilight 5:55 AM EST 6:37 PM EST
Moon 4:45 AM EST (12/19) 3:21 PM EST (12/19)
Length of Visible Light 10h 31m
Length of Day
9h 32m
Waning Crescent, 7% of the Moon is Illuminated
Dec 19
Waning Crescent
Dec 21
New
Dec 28
First Quarter
Jan 4
Full
Jan 13
Last Quarter

Hourly Weather History & Observations

Time (EST) Temp. Windchill Dew Point Humidity Pressure Visibility Wind Dir Wind Speed Gust Speed Precip Events Conditions
12:15 AM 24.8 °F 12.4 °F 18.3 °F 76% 29.97 in 10.0 mi West 15.0 mph 19.6 mph N/A   Overcast
12:35 AM 24.6 °F 11.7 °F 17.6 °F 75% 29.96 in 10.0 mi West 16.1 mph - N/A   Overcast
12:55 AM 24.3 °F 12.7 °F 18.1 °F 77% 29.96 in 10.0 mi West 12.7 mph 17.3 mph N/A   Mostly Cloudy
1:15 AM 23.9 °F 12.3 °F 18.3 °F 79% 29.96 in 10.0 mi West 12.7 mph 18.4 mph N/A   Mostly Cloudy
1:35 AM 23.5 °F 11.8 °F 18.3 °F 80% 29.96 in 10.0 mi West 12.7 mph - N/A   Scattered Clouds
1:55 AM 23.0 °F 11.1 °F 18.5 °F 83% 29.97 in 10.0 mi West 12.7 mph 18.4 mph N/A   Clear
2:15 AM 22.6 °F 11.3 °F 18.5 °F 84% 29.96 in 10.0 mi West 11.5 mph - N/A   Clear
2:35 AM 22.1 °F 11.3 °F 19.0 °F 88% 29.97 in 10.0 mi West 10.4 mph - N/A   Scattered Clouds
2:55 AM 21.9 °F 11.0 °F 19.4 °F 90% 29.96 in 10.0 mi West 10.4 mph 16.1 mph N/A   Mostly Cloudy
3:15 AM 21.7 °F 10.8 °F 21.2 °F 98% 29.96 in 10.0 mi West 10.4 mph - N/A   Mostly Cloudy
3:35 AM 21.6 °F 10.6 °F 21.2 °F 99% 29.96 in 10.0 mi West 10.4 mph - N/A   Scattered Clouds
3:55 AM 21.2 °F 10.1 °F 21.2 °F 100% 29.96 in 10.0 mi West 10.4 mph - N/A   Scattered Clouds
4:15 AM 21.2 °F 11.7 °F 21.2 °F 100% 29.96 in 10.0 mi West 8.1 mph - N/A   Mostly Cloudy
4:35 AM 21.0 °F 11.4 °F 21.0 °F 100% 29.96 in 10.0 mi WNW 8.1 mph - N/A   Mostly Cloudy
4:55 AM 20.8 °F 9.7 °F 20.8 °F 100% 29.96 in 10.0 mi WNW 10.4 mph - N/A   Scattered Clouds
5:15 AM 20.7 °F 9.5 °F 20.7 °F 100% 29.96 in 7.0 mi West 10.4 mph - N/A   Scattered Clouds
5:30 AM 20.8 °F 9.0 °F 20.8 °F 100% 29.96 in 7.0 mi West 11.5 mph - N/A   Mostly Cloudy
5:55 AM 20.5 °F 8.6 °F 20.5 °F 100% 29.97 in 7.0 mi West 11.5 mph - N/A   Overcast
6:15 AM 20.7 °F 7.1 °F 20.7 °F 100% 29.97 in 7.0 mi WNW 15.0 mph - N/A   Scattered Clouds
6:35 AM 20.8 °F 7.9 °F 20.8 °F 100% 29.98 in 10.0 mi WNW 13.8 mph 19.6 mph N/A   Clear
6:55 AM 20.3 °F 7.7 °F 20.3 °F 100% 29.98 in 7.0 mi WNW 12.7 mph 17.3 mph N/A   Scattered Clouds
7:15 AM 20.1 °F 7.5 °F 20.1 °F 100% 29.99 in 7.0 mi West 12.7 mph - N/A   Scattered Clouds
7:35 AM 20.3 °F 7.2 °F 20.3 °F 100% 29.98 in 7.0 mi WNW 13.8 mph - N/A   Scattered Clouds
7:55 AM 20.7 °F 8.2 °F 20.7 °F 100% 29.98 in 10.0 mi West 12.7 mph - N/A   Clear
8:15 AM 21.0 °F 7.6 °F 21.0 °F 100% 30.00 in 10.0 mi West 15.0 mph - N/A   Clear
8:35 AM 21.2 °F 8.3 °F 21.2 °F 100% 30.00 in 10.0 mi West 13.8 mph - N/A   Clear
8:55 AM 21.7 °F 8.5 °F 21.7 °F 100% 30.00 in 10.0 mi West 15.0 mph - N/A   Clear
9:15 AM 22.1 °F 8.5 °F 21.9 °F 99% 30.01 in 10.0 mi West 16.1 mph - N/A   Clear
9:35 AM 23.0 °F 10.6 °F 22.1 °F 96% 30.02 in 10.0 mi WNW 13.8 mph - N/A   Clear
9:55 AM 23.7 °F 11.0 °F 22.3 °F 94% 30.02 in 10.0 mi West 15.0 mph - N/A   Clear
10:15 AM 24.6 °F 13.8 °F 22.3 °F 91% 30.03 in 10.0 mi West 11.5 mph - N/A   Clear
10:35 AM 25.3 °F 12.6 °F 21.7 °F 86% 30.03 in 10.0 mi West 16.1 mph - N/A   Clear
10:50 AM 25.9 °F 13.8 °F 20.5 °F 80% 30.02 in 10.0 mi West 15.0 mph - N/A   Clear
11:15 AM 27.1 °F 16.4 °F 20.5 °F 76% 30.02 in 10.0 mi West 12.7 mph - N/A   Clear
11:35 AM 28.2 °F 16.8 °F 20.5 °F 73% 30.01 in 10.0 mi WNW 15.0 mph - N/A   Clear
11:55 AM 29.3 °F 18.6 °F 21.0 °F 71% 30.00 in 10.0 mi West 13.8 mph - N/A   Clear
12:15 PM 30.0 °F 19.5 °F 21.0 °F 69% 30.00 in 10.0 mi West 13.8 mph - N/A   Clear
12:35 PM 30.9 °F 21.2 °F 21.2 °F 67% 29.99 in 10.0 mi West 12.7 mph - N/A   Clear
12:55 PM 31.8 °F 22.8 °F 21.6 °F 66% 30.00 in 10.0 mi West 11.5 mph - N/A   Clear
1:15 PM 32.2 °F 23.2 °F 21.7 °F 65% 29.99 in 10.0 mi West 11.5 mph - N/A   Clear
1:35 PM 32.7 °F 23.4 °F 21.9 °F 64% 30.00 in 10.0 mi West 12.7 mph - N/A   Clear
1:55 PM 32.9 °F 23.2 °F 21.9 °F 64% 29.99 in 10.0 mi West 13.8 mph 19.6 mph N/A   Clear
2:15 PM 33.8 °F 24.8 °F 22.5 °F 63% 30.00 in 10.0 mi West 12.7 mph 17.3 mph N/A   Clear
2:35 PM 33.1 °F 23.0 °F 22.1 °F 64% 30.00 in 10.0 mi West 15.0 mph - N/A   Clear
2:55 PM 32.9 °F 22.8 °F 22.1 °F 65% 30.01 in 10.0 mi West 15.0 mph - N/A   Clear
3:15 PM 32.4 °F 21.7 °F 21.9 °F 65% 30.01 in 10.0 mi West 16.1 mph - N/A   Clear
3:35 PM 32.0 °F 21.2 °F 21.0 °F 64% 30.00 in 10.0 mi West 16.1 mph - N/A   Clear
3:55 PM 31.3 °F 21.6 °F 20.1 °F 63% 30.00 in 10.0 mi West 12.7 mph - N/A   Clear
4:15 PM 31.3 °F 21.1 °F 20.1 °F 63% 30.00 in 10.0 mi West 13.8 mph - N/A   Clear
4:35 PM 30.6 °F 21.2 °F 19.4 °F 63% 30.00 in 10.0 mi West 11.5 mph - N/A   Clear
4:55 PM 29.3 °F 19.1 °F 19.4 °F 67% 30.01 in 10.0 mi West 12.7 mph - N/A   Clear
5:15 PM 28.6 °F 18.2 °F 19.4 °F 69% 30.03 in 10.0 mi WNW 12.7 mph - N/A   Clear
5:35 PM 27.5 °F 17.4 °F 20.7 °F 75% 30.04 in 10.0 mi WNW 11.5 mph - N/A   Clear
5:55 PM 26.4 °F 15.5 °F 20.7 °F 79% 30.04 in 10.0 mi WNW 12.7 mph - N/A   Clear
6:15 PM 25.7 °F 15.1 °F 20.5 °F 81% 30.04 in 10.0 mi WNW 11.5 mph - N/A   Clear
6:35 PM 25.0 °F 14.2 °F 20.3 °F 82% 30.05 in 10.0 mi WNW 11.5 mph - N/A   Clear
6:55 PM 24.6 °F 14.4 °F 20.3 °F 84% 30.06 in 10.0 mi WNW 10.4 mph - N/A   Clear
7:15 PM 24.3 °F 12.7 °F 20.3 °F 85% 30.05 in 10.0 mi WNW 12.7 mph - N/A   Clear
7:35 PM 23.5 °F 13.7 °F 19.9 °F 86% 30.07 in 10.0 mi WNW 9.2 mph - N/A   Clear
7:55 PM 23.0 °F 12.4 °F 19.9 °F 88% 30.07 in 10.0 mi WNW 10.4 mph - N/A   Clear
8:15 PM 22.8 °F 12.9 °F 19.9 °F 89% 30.07 in 10.0 mi WNW 9.2 mph - N/A   Clear
8:35 PM 22.3 °F 14.9 °F 19.6 °F 89% 30.07 in 10.0 mi NW 5.8 mph - N/A   Clear
8:55 PM 21.4 °F - 20.8 °F 98% 30.07 in 10.0 mi Calm Calm - N/A   Clear
9:15 PM 20.3 °F 15.4 °F 19.6 °F 97% 30.08 in 10.0 mi WNW 3.5 mph - N/A   Clear
9:35 PM 21.0 °F 12.4 °F 21.0 °F 100% 30.07 in 10.0 mi WNW 6.9 mph - N/A   Clear
9:55 PM 20.8 °F 9.7 °F 20.8 °F 100% 30.07 in 10.0 mi NW 10.4 mph - N/A   Clear
10:15 PM 20.5 °F 10.0 °F 20.5 °F 100% 30.07 in 10.0 mi WNW 9.2 mph - N/A   Clear
10:35 PM 20.7 °F 11.0 °F 20.7 °F 100% 30.07 in 10.0 mi WNW 8.1 mph - N/A   Clear
10:55 PM 20.7 °F 14.2 °F 20.7 °F 100% 30.07 in 10.0 mi South 4.6 mph - N/A   Clear
11:15 PM 21.9 °F 15.7 °F 21.7 °F 99% 30.07 in 10.0 mi West 4.6 mph - N/A   Clear
11:35 PM 21.6 °F - 21.4 °F 99% 30.07 in 10.0 mi Calm Calm - N/A   Clear
11:55 PM 21.4 °F - 20.8 °F 98% 30.06 in 10.0 mi Calm Calm - N/A   Clear